BEE944 EGAC-EGPH

Flight info

Callsign BEE944
Flight time 0h 36m
Altitude 17000
Route BLACA P600 TUNSO
Aircraft DH8D/M-SDE2E3FGRY/H

Departure

Time 2026-04-11 08:35
Airport George Best Belfast City Airport (EGAC)

Arrival

Time 2026-04-11 09:11
Airport Edinburgh Airport (EGPH)
Time Latitude Longitude Altitude Speed Heading
2026-04-11 08:12 54.61460 -5.87188 15 ft 0 kts 156°
2026-04-11 08:27 54.61463 -5.87190 14 ft 2 kts 156°
2026-04-11 08:27 54.61472 -5.87197 14 ft 2 kts 153°
2026-04-11 08:27 54.61483 -5.87213 15 ft 2 kts 123°
2026-04-11 08:27 54.61488 -5.87236 15 ft 2 kts 96°
2026-04-11 08:28 54.61487 -5.87261 14 ft 2 kts 70°
2026-04-11 08:28 54.61480 -5.87283 14 ft 2 kts 43°
2026-04-11 08:28 54.61474 -5.87291 14 ft 0 kts 33°
2026-04-11 08:31 54.61492 -5.87270 14 ft 5 kts 33°
2026-04-11 08:31 54.61536 -5.87217 14 ft 9 kts 37°
2026-04-11 08:31 54.61601 -5.87138 14 ft 12 kts 33°
2026-04-11 08:32 54.61678 -5.87045 14 ft 14 kts 34°
2026-04-11 08:32 54.61761 -5.87011 14 ft 12 kts 321°
2026-04-11 08:32 54.61809 -5.87118 14 ft 10 kts 305°
2026-04-11 08:32 54.61872 -5.87160 14 ft 11 kts 20°
2026-04-11 08:33 54.61946 -5.87087 14 ft 13 kts 32°
2026-04-11 08:33 54.62030 -5.86988 14 ft 18 kts 35°
2026-04-11 08:33 54.62140 -5.86856 13 ft 19 kts 34°
2026-04-11 08:33 54.62251 -5.86720 13 ft 19 kts 34°
2026-04-11 08:34 54.62365 -5.86582 13 ft 20 kts 36°
2026-04-11 08:34 54.62440 -5.86480 13 ft 10 kts 276°
2026-04-11 08:34 54.62423 -5.86518 13 ft 0 kts 212°
2026-04-11 08:35 54.62321 -5.86639 14 ft 60 kts 214°
2026-04-11 08:35 54.61744 -5.87324 16 ft 133 kts 215°
2026-04-11 08:35 54.60963 -5.88358 388 ft 149 kts 214°
2026-04-11 08:35 54.59979 -5.89072 956 ft 163 kts 192°
2026-04-11 08:36 54.58800 -5.89209 1464 ft 179 kts 176°
2026-04-11 08:36 54.57667 -5.88307 2138 ft 190 kts 142°
2026-04-11 08:36 54.57011 -5.86356 2853 ft 198 kts 107°
2026-04-11 08:36 54.56974 -5.83945 3425 ft 208 kts 87°
2026-04-11 08:37 54.57396 -5.81555 4039 ft 214 kts 70°
2026-04-11 08:37 54.58009 -5.79203 4606 ft 221 kts 61°
2026-04-11 08:37 54.58993 -5.76975 4850 ft 242 kts 51°
2026-04-11 08:37 54.60093 -5.74784 5347 ft 249 kts 51°
2026-04-11 08:38 54.61231 -5.72495 5910 ft 253 kts 51°
2026-04-11 08:38 54.62369 -5.70193 6478 ft 256 kts 51°
2026-04-11 08:38 54.63508 -5.67866 7077 ft 258 kts 51°
2026-04-11 08:38 54.64665 -5.65494 7680 ft 261 kts 52°
2026-04-11 08:39 54.65834 -5.63083 8287 ft 263 kts 52°
2026-04-11 08:39 54.67007 -5.60654 8877 ft 265 kts 52°
2026-04-11 08:39 54.68152 -5.58277 9554 ft 260 kts 51°
2026-04-11 08:39 54.69296 -5.55893 10208 ft 256 kts 51°
2026-04-11 08:40 54.70421 -5.53545 10850 ft 252 kts 50°
2026-04-11 08:40 54.71523 -5.51246 11532 ft 249 kts 50°
2026-04-11 08:40 54.72644 -5.48899 12015 ft 261 kts 50°
2026-04-11 08:40 54.73808 -5.46454 12596 ft 268 kts 50°
2026-04-11 08:41 54.75011 -5.43928 13198 ft 276 kts 50°
2026-04-11 08:41 54.76242 -5.41344 13797 ft 282 kts 50°
2026-04-11 08:41 54.77492 -5.38715 14425 ft 283 kts 50°
2026-04-11 08:41 54.78747 -5.36072 14969 ft 287 kts 50°
2026-04-11 08:42 54.79987 -5.33455 15613 ft 285 kts 51°
2026-04-11 08:42 54.81251 -5.30792 16099 ft 290 kts 51°
2026-04-11 08:42 54.82534 -5.28075 16639 ft 291 kts 52°
2026-04-11 08:43 54.85199 -5.22424 16980 ft 319 kts 52°
2026-04-11 08:43 54.86630 -5.19391 17002 ft 335 kts 51°
2026-04-11 08:43 54.88202 -5.16286 16989 ft 349 kts 44°
2026-04-11 08:43 54.90261 -5.14006 17036 ft 357 kts 26°
2026-04-11 08:44 54.92514 -5.12076 17017 ft 366 kts 25°
2026-04-11 08:44 54.94833 -5.10108 17001 ft 373 kts 25°
2026-04-11 08:44 54.97157 -5.08127 16991 ft 379 kts 25°
2026-04-11 08:44 54.99504 -5.06116 16976 ft 372 kts 25°
2026-04-11 08:45 55.01786 -5.04158 16981 ft 356 kts 25°
2026-04-11 08:45 55.03969 -5.02284 16982 ft 347 kts 25°
2026-04-11 08:45 55.06101 -5.00439 16984 ft 340 kts 25°
2026-04-11 08:45 55.08187 -4.98627 16977 ft 334 kts 25°
2026-04-11 08:46 55.10204 -4.96687 16918 ft 331 kts 36°
2026-04-11 08:46 55.11655 -4.93684 16832 ft 325 kts 63°
2026-04-11 08:46 55.12612 -4.90096 16650 ft 326 kts 69°
2026-04-11 08:46 55.13519 -4.86481 16465 ft 328 kts 69°
2026-04-11 08:47 55.14433 -4.82798 16281 ft 329 kts 69°
2026-04-11 08:47 55.15341 -4.79139 16086 ft 330 kts 69°
2026-04-11 08:47 55.16244 -4.75485 15909 ft 332 kts 69°
2026-04-11 08:47 55.17165 -4.71746 15713 ft 333 kts 69°
2026-04-11 08:48 55.18073 -4.68070 15534 ft 334 kts 69°
2026-04-11 08:48 55.18997 -4.64332 15347 ft 334 kts 69°
2026-04-11 08:48 55.19917 -4.60597 15155 ft 335 kts 69°
2026-04-11 08:48 55.20837 -4.56858 14964 ft 335 kts 69°
2026-04-11 08:49 55.21756 -4.53112 14779 ft 336 kts 69°
2026-04-11 08:49 55.22665 -4.49406 14582 ft 336 kts 69°
2026-04-11 08:49 55.23586 -4.45637 14402 ft 335 kts 69°
2026-04-11 08:49 55.24504 -4.41879 14206 ft 335 kts 69°
2026-04-11 08:50 55.25413 -4.38148 14016 ft 335 kts 69°
2026-04-11 08:50 55.26321 -4.34410 13830 ft 335 kts 70°
2026-04-11 08:50 55.27234 -4.30656 13637 ft 335 kts 70°
2026-04-11 08:50 55.28141 -4.26914 13445 ft 334 kts 70°
2026-04-11 08:51 55.29045 -4.23185 13262 ft 333 kts 70°
2026-04-11 08:51 55.29944 -4.19469 13070 ft 333 kts 70°
2026-04-11 08:51 55.30848 -4.15729 12883 ft 332 kts 70°
2026-04-11 08:51 55.31752 -4.11979 12690 ft 332 kts 70°
2026-04-11 08:52 55.33540 -4.04534 12306 ft 332 kts 70°
2026-04-11 08:52 55.34434 -4.00804 12121 ft 332 kts 70°
2026-04-11 08:52 55.35320 -3.97104 11929 ft 332 kts 70°
2026-04-11 08:53 55.36211 -3.93373 11748 ft 331 kts 71°
2026-04-11 08:53 55.37098 -3.89658 11564 ft 331 kts 71°
2026-04-11 08:53 55.37993 -3.85897 11382 ft 331 kts 71°
2026-04-11 08:53 55.38874 -3.82187 11199 ft 331 kts 72°
2026-04-11 08:54 55.39749 -3.78497 11020 ft 330 kts 72°
2026-04-11 08:54 55.40636 -3.74752 10841 ft 329 kts 72°
2026-04-11 08:54 55.41510 -3.71052 10657 ft 329 kts 72°
2026-04-11 08:54 55.42380 -3.67365 10469 ft 328 kts 72°
2026-04-11 08:55 55.43249 -3.63690 10265 ft 318 kts 72°
2026-04-11 08:55 55.44082 -3.60218 10069 ft 298 kts 73°
2026-04-11 08:55 55.44859 -3.56953 9900 ft 284 kts 74°
2026-04-11 08:55 55.45602 -3.53787 9747 ft 278 kts 74°
2026-04-11 08:56 55.46322 -3.50708 9598 ft 273 kts 75°
2026-04-11 08:56 55.47040 -3.47635 9461 ft 269 kts 75°
2026-04-11 08:56 55.47741 -3.44612 9326 ft 267 kts 75°
2026-04-11 08:56 55.48442 -3.41588 9182 ft 266 kts 75°
2026-04-11 08:57 55.49144 -3.38568 9033 ft 265 kts 75°
2026-04-11 08:57 55.50011 -3.35692 8847 ft 273 kts 54°
2026-04-11 08:57 55.51559 -3.33744 8728 ft 276 kts 29°
2026-04-11 08:57 55.53281 -3.32257 8566 ft 276 kts 28°
2026-04-11 08:58 55.54996 -3.30801 8410 ft 276 kts 27°
2026-04-11 08:58 55.56723 -3.29338 8254 ft 276 kts 27°
2026-04-11 08:58 55.58446 -3.27871 8099 ft 275 kts 27°
2026-04-11 08:58 55.60171 -3.26397 7942 ft 275 kts 28°
2026-04-11 08:59 55.61884 -3.24926 7787 ft 275 kts 28°
2026-04-11 08:59 55.63612 -3.23442 7630 ft 275 kts 28°
2026-04-11 08:59 55.65319 -3.21965 7475 ft 275 kts 28°
2026-04-11 08:59 55.67047 -3.20475 7319 ft 275 kts 28°
2026-04-11 09:00 55.68763 -3.18989 7162 ft 275 kts 28°
2026-04-11 09:00 55.70471 -3.17502 7005 ft 275 kts 28°
2026-04-11 09:00 55.72175 -3.15995 6850 ft 275 kts 28°
2026-04-11 09:00 55.73892 -3.14492 6696 ft 275 kts 28°
2026-04-11 09:01 55.75597 -3.13003 6538 ft 276 kts 28°
2026-04-11 09:01 55.77320 -3.11485 6388 ft 275 kts 28°
2026-04-11 09:01 55.79036 -3.09961 6234 ft 276 kts 27°
2026-04-11 09:01 55.80748 -3.08469 6078 ft 276 kts 26°
2026-04-11 09:02 55.82475 -3.06986 5924 ft 275 kts 25°
2026-04-11 09:02 55.84193 -3.05501 5763 ft 274 kts 24°
2026-04-11 09:02 55.85968 -3.04397 5582 ft 273 kts 14°
2026-04-11 09:02 55.87806 -3.03460 5281 ft 278 kts 14°
2026-04-11 09:03 55.89666 -3.02509 4980 ft 281 kts 14°
2026-04-11 09:03 55.91512 -3.01574 4665 ft 271 kts 14°
2026-04-11 09:03 55.93282 -3.00689 4350 ft 261 kts 14°
2026-04-11 09:03 55.94986 -2.99853 4104 ft 248 kts 14°
2026-04-11 09:04 55.96602 -2.99052 3872 ft 234 kts 14°
2026-04-11 09:04 55.98114 -2.98308 3650 ft 223 kts 14°
2026-04-11 09:04 55.99602 -2.97587 3449 ft 221 kts 15°
2026-04-11 09:04 56.01070 -2.96877 3364 ft 215 kts 14°
2026-04-11 09:05 56.02492 -2.96312 3287 ft 210 kts 359°
2026-04-11 09:05 56.03785 -2.97141 3207 ft 191 kts 305°
2026-04-11 09:05 56.04406 -2.99088 3163 ft 179 kts 282°
2026-04-11 09:05 56.04839 -3.01206 3125 ft 187 kts 279°
2026-04-11 09:06 56.05234 -3.03491 3091 ft 196 kts 277°
2026-04-11 09:06 56.05381 -3.05840 3028 ft 188 kts 247°
2026-04-11 09:06 56.04840 -3.07890 3013 ft 184 kts 229°
2026-04-11 09:06 56.04127 -3.09858 2986 ft 193 kts 231°
2026-04-11 09:07 56.03458 -3.11989 2952 ft 202 kts 233°
2026-04-11 09:07 56.02778 -3.14140 2888 ft 188 kts 232°
2026-04-11 09:07 56.02132 -3.16040 2717 ft 176 kts 231°
2026-04-11 09:07 56.01529 -3.17883 2452 ft 168 kts 232°
2026-04-11 09:08 56.00953 -3.19634 2206 ft 157 kts 231°
2026-04-11 09:08 56.00412 -3.21223 1976 ft 145 kts 231°
2026-04-11 09:08 55.99918 -3.22699 1786 ft 128 kts 231°
2026-04-11 09:08 55.99473 -3.24043 1648 ft 122 kts 232°
2026-04-11 09:09 55.99043 -3.25338 1543 ft 125 kts 232°
2026-04-11 09:09 55.98579 -3.26697 1374 ft 128 kts 232°
2026-04-11 09:09 55.98130 -3.28017 1196 ft 123 kts 234°
2026-04-11 09:09 55.97695 -3.29303 986 ft 117 kts 235°
2026-04-11 09:10 55.97288 -3.30503 790 ft 110 kts 237°
2026-04-11 09:10 55.96878 -3.31698 561 ft 120 kts 238°
2026-04-11 09:10 55.96475 -3.32913 636 ft 114 kts 236°
2026-04-11 09:10 55.96024 -3.34222 406 ft 133 kts 237°
2026-04-11 09:11 55.95512 -3.35681 137 ft 134 kts 238°
2026-04-11 09:11 55.95105 -3.36908 105 ft 87 kts 234°
2026-04-11 09:11 55.94819 -3.37767 106 ft 65 kts 239°
2026-04-11 09:11 55.94642 -3.37997 107 ft 25 kts 148°
2026-04-11 09:12 55.94609 -3.37957 106 ft 0 kts 141°
2026-04-11 09:12 55.94606 -3.37829 106 ft 13 kts 58°
2026-04-11 09:12 55.94633 -3.37749 106 ft 18 kts 59°
2026-04-11 09:13 55.94672 -3.37633 105 ft 0 kts 60°
2026-04-11 09:13 55.94672 -3.37632 105 ft 2 kts 59°
2026-04-11 09:13 55.94724 -3.37486 105 ft 9 kts 57°
2026-04-11 09:13 55.94746 -3.37422 105 ft 16 kts 59°
2026-04-11 09:14 55.94827 -3.37181 105 ft 19 kts 56°
2026-04-11 09:14 55.94885 -3.37013 105 ft 10 kts 60°
2026-04-11 09:14 55.94925 -3.36892 105 ft 9 kts 58°
2026-04-11 09:14 55.94959 -3.36794 105 ft 11 kts 59°
2026-04-11 09:15 55.94971 -3.36758 105 ft 4 kts 59°
2026-04-11 09:15 55.95007 -3.36650 105 ft 18 kts 59°
2026-04-11 09:15 55.95020 -3.36614 105 ft 0 kts 59°
2026-04-11 09:16 55.95020 -3.36612 105 ft 0 kts 59°
2026-04-11 09:17 55.95026 -3.36595 105 ft 9 kts 59°
2026-04-11 09:17 55.95052 -3.36417 105 ft 15 kts 125°
2026-04-11 09:17 55.95020 -3.36400 105 ft 3 kts 181°
2026-04-11 09:18 55.95000 -3.36388 105 ft 5 kts 160°
2026-04-11 09:18 55.94946 -3.36360 105 ft 5 kts 149°